Tracking 28792 objects as of 25-Apr-2024
HD Live streaming from Space Station
objects crossing your sky now

SL-24 DEB

Track SL-24 DEB now!
10-day predictions


NORAD ID: 36601
Int'l Code: 2010-028D
Perigee: 721.8 km
Apogee: 743.5 km
Inclination: 98.3 °
Period: 99.3 minutes
Semi major axis: 7103 km
RCS: 5.771 m2 (large)
Launch date: June 15, 2010
Source: Commonwealth of Independent States (former USSR) (CIS)
Launch site: Orenburg, Russia (OREN)

Note: This is SATELLITE DEBRIS
Your satellite tracking list
Your tracking list is empty




NASA's NSSDC Master Catalog

Two Line Element Set (TLE):
1 36601U 10028D   24115.52982885  .00002046  00000-0  53864-3 0  9998
2 36601  98.3498 313.1669 0015276 257.6738 102.2746 14.50034947732198
Source of the keplerian elements: AFSPC